sat.trackr.live / text

‹ back to catalog

STARLINK-5660

NORAD 55335 · 2023-013E

PAYLOAD ACTIVE UNKNOWN

§ Identity

Operator
Country
US
Launch date
2023-01-26
Launch site
AFETR
Launch vehicle
Mass (kg)
RCS (m²)

Purposes: comms

External: N2YO · Heavens-Above · Gunter

§ Orbital elements

Epoch: 2026-09-19T18:37:21.495936Z

Period
94.27 min
Inclination
43.0012°
Eccentricity
0.0000757
Mean motion
15.27576439 rev/d
Perigee alt
482.5 km
Apogee alt
483.6 km
Semi-major
6,861.2 km
B*
-1.0715e-5
RAAN
287.5500°
Arg perigee
280.7429°
Mean anomaly
79.3337°
Rev number
20,135

§ Raw data

STARLINK-56601 55335U 23013E   26262.77594324 -.00000557  00000+0 -10715-4 0  99952 55335  43.0012 287.5500 0000757 280.7429  79.3337 15.27576439201353

JSON: /api/v1/satellites/55335 · /tle

For live sub-satellite position, see the globe view (requires WebGL).

§ Visibility from observer

Set your observer location to see the next 7 days of passes ≥ 10°. The values pass through the URL so the page stays shareable.

No JS? Fill the form by hand. The geolocation button needs JavaScript.